COSMOS 2596 (708K)

Last updated on Fri Sep 04 2026 00:03:21 GMT+0000 (Coordinated Universal Time)

1 65590U 25206B 26246.42346697 -.00000033 00000+0 00000+0 0 9996 2 65590 64.5842 312.2593 0012131 302.0374 110.0161 2.13100644 7589
UTC large
Height (km)
Speed (km/s)
/
Latitude / Longitude
Inclination (degrees)
Orbital Period (minutes)
Azimuth
Elevation
Range (km)
Doppler Factor

Next 0 passes for location: London (51.5072 / 0.1276)

No passes found over London.
COSMOS 2596 (708K)